#timestamp,LO_Frequency,Hit,StdDev 
1596603615.3,286046999.6,N
1596603635.2,286046997.6,N
1596603655.9,286046997.4,N
1596603675.7,286046997.8,N
1596603695.6,286046997.2,N
1596603715.4,286046999.2,N
1596603735.2,286046999.2,N
1596603755.1,286046997.0,N
1596603756.0,286046997.0,N
1596603775.8,286046997.6,N
1596603795.7,286046995.3,N
1596603815.5,286046997.3,N
1596603835.3,286046996.7,N
1596603855.2,286046999.3,N
1596603875.0,286046999.3,N
1596603875.9,286046999.3,N
1596603895.8,286046999.2,N
1596603915.6,286046999.2,N
1596603935.4,286046999.6,N
1596603955.3,286046998.5,N
1596603975.1,286047001.0,N
1596603995.9,286046999.7,N
1596604015.7,286047001.1,N
1596604035.5,286047001.1,N
1596604055.4,286046998.4,N
1596604075.2,286046998.8,N
1596604095.0,286046999.4,N
1596604095.9,286046999.4,N
1596604115.8,286046997.1,N
1596604135.6,286046996.8,N
1596604155.5,286046999.4,N
1596604175.3,286046998.4,N
1596604195.1,286046998.2,N
1596604215.9,286046999.5,N
1596604235.7,286046998.0,N
1596604255.6,286046996.9,N
1596604275.4,286046999.5,N
1596604295.2,286046997.1,N
1596604315.1,286046997.3,N
1596604316.0,286046997.3,N
1596604335.8,286046998.4,N
1596604355.6,286046998.5,N
1596604375.5,286046998.6,N
1596604395.3,286047000.9,N
1596604415.2,286047000.9,N
1596604435.9,286047000.5,N
1596604455.7,286046998.3,N
1596604475.6,286046996.9,N
1596604495.4,286046999.5,N
1596604515.2,286046998.9,N
1596604535.1,286046999.0,N
1596604536.0,286046999.0,N
1596604555.8,286046998.8,N
1596604575.7,286046998.2,N
1596604595.5,286047000.6,N
1596604615.4,286047002.5,N
1596604635.2,286047002.3,N
1596604655.0,286047001.1,N
1596604655.9,286047001.1,N
1596604675.8,286047000.8,N
1596604695.6,286047001.0,N
1596604715.5,286046998.1,N
1596604735.3,286047002.2,N
1596604755.1,286047002.2,N
1596604775.9,286047001.8,N
1596604795.7,286047002.5,N
1596604815.6,286047002.0,N
1596604835.4,286047001.8,N
1596604855.2,286047001.9,N
1596604875.1,286047000.3,N
1596604876.0,286047000.3,N
1596604895.8,286047002.6,N
1596604915.7,286047002.1,N
1596604935.5,286046999.7,N
1596604955.3,286047001.6,N
1596604975.2,286047002.2,N
1596604995.0,286047000.5,N
1596604995.9,286047000.5,N
1596605015.8,286046999.9,N
1596605035.6,286047001.0,N
1596605055.4,286046999.9,N
1596605075.3,286047001.8,N
1596605095.1,286047002.3,N
1596605115.8,286047000.2,N
1596605135.7,286046999.8,N
1596605155.5,286047001.7,N
1596605175.4,286047002.1,N
1596605195.2,286047002.5,N
1596605215.0,286046999.8,N
1596605215.9,286046999.8,N
1596605235.8,286047002.0,N
1596605255.6,286047002.6,N
1596605275.5,286047002.3,N
1596605295.3,286047001.8,N
1596605315.1,286047002.5,N
1596605335.9,286047002.0,N
1596605355.7,286047001.6,N
1596605375.5,286047002.1,N
1596605395.4,286047003.9,Y
1596605415.2,286047000.2,P
1596605435.1,286047001.6,N
1596605436.0,286047001.6,N
1596605455.8,286047002.8,Y
1596605475.6,286047000.4,P
1596605495.5,286047000.9,N
1596605515.3,286047002.8,P
1596605535.2,286047000.1,N
1596605555.9,286047000.8,N
1596605575.7,286047001.0,N
1596605595.6,286047000.1,N
1596605615.4,286047000.3,N
1596605635.2,286047001.0,N
1596605655.1,286046998.1,N
1596605656.0,286046998.1,N
1596605675.8,286047000.4,N
1596605695.7,286047000.7,N
1596605715.5,286046998.7,N
1596605735.4,286046998.2,N
1596605755.2,286047001.1,N
1596605775.0,286047000.8,N
1596605775.9,286047000.8,N
1596605795.8,286047000.7,N
1596605815.6,286047000.4,N
1596605835.5,286046998.6,N
1596605855.3,286047000.5,N
1596605875.1,286046998.1,N
1596605895.9,286047001.0,N
1596605915.7,286047000.6,N
1596605935.5,286047000.5,N
1596605955.4,286046998.3,N
1596605975.2,286046998.1,N
1596605995.1,286047001.0,N
1596605996.0,286047001.0,N
1596606015.8,286047001.1,N
1596606035.6,286046998.2,N
1596606055.5,286047001.1,N
1596606105.4,286047002.4,E
1596606115.3,286047000.0,N
1596606135.1,286046998.7,P
1596606155.9,286046998.1,N
1596606175.7,286046996.6,Y
1596606195.5,286046999.4,P
1596606215.4,286046999.4,N
1596606235.2,286046998.8,P
1596606255.0,286046999.0,Y
1596606256.0,286046999.0,P
1596606275.8,286046998.5,P
1596606295.6,286046998.9,P
1596606315.5,286046998.1,Y
1596606335.3,286047002.3,P
1596606355.2,286046999.8,N
1596606375.9,286047002.6,N
1596606395.7,286047002.7,N
1596606415.6,286047002.8,N
1596606435.4,286047002.4,N
1596606455.3,286047002.0,N
1596606475.1,286047002.1,N
1596606476.0,286047002.1,N
1596606495.8,286047000.2,N
1596606515.7,286046999.7,N
1596606535.5,286047003.2,N
1596606555.3,286047001.4,N
1596606575.2,286047002.3,N
1596606595.0,286047002.8,N
1596606615.5,286047003.3,N
1596606635.3,286047009.0,Y
1596606655.1,286047002.9,P
1596606675.9,286047003.7,P
1596606695.7,286047007.2,P
1596606715.2,286047007.5,Y
1596606735.0,286047000.9,P
1596606735.9,286047000.9,N
1596606755.8,286046998.2,N
1596606775.6,286046998.8,N
1596606795.4,286046998.6,N
1596606815.3,286046998.6,N
1596606835.1,286046996.5,N
1596606855.8,286046999.2,N
1596606875.7,286046998.4,N
1596606895.5,286046999.4,N
1596606915.4,286046996.5,N
1596606935.2,286046996.6,N
1596606955.0,286046998.8,N
1596606955.9,286046998.8,N
1596606975.8,286046997.7,N
1596606995.6,286046996.6,N
1596607015.5,286047002.7,N
1596607035.3,286046998.5,N
1596607055.1,286046998.5,N
1596607075.9,286046998.7,N
1596607095.7,286046997.1,N
1596607115.6,286046997.0,N
1596607135.4,286046999.6,N
1596607155.2,286046996.7,N
1596607175.1,286046996.9,N
1596607176.0,286046996.9,N
1596607195.8,286046997.7,N
